| time (UTC) | temp F | wind direction | speed MPH | gust MPH | rain 1hr in | rain 24hr in | rain mn in | humidity % | barometer mb |
| 20260906060458 | 61 | 0 | 0.0 | 0.0 | 0.00 | 0.00 | 0.00 | 90 | 983.1 |
| 20260906053458 | 61 | 0 | 0.0 | 0.0 | 0.00 | 0.00 | 0.00 | 89 | 983.0 |
| 20260906050504 | 62 | 333 | 0.0 | 0.0 | 0.00 | 0.00 | 0.00 | 88 | 982.7 |
| 20260906044822 | 62 | 333 | 0.0 | 0.0 | 0.00 | 0.00 | 0.00 | 87 | 982.5 |
| 20260906041825 | 63 | 332 | 0.0 | 0.0 | 0.00 | 0.00 | 0.00 | 86 | 982.4 |
| 20260906033445 | 64 | 332 | 0.0 | 0.0 | 0.00 | 0.00 | 0.00 | 86 | 982.5 |
| 20260906030444 | 64 | 333 | 0.0 | 2.0 | 0.00 | 0.00 | 0.00 | 86 | 982.6 |
| 20260906023445 | 65 | 0 | 0.0 | 0.0 | 0.00 | 0.00 | 0.00 | 86 | 982.6 |
| 20260906020440 | 65 | 0 | 0.0 | 0.0 | 0.00 | 0.00 | 0.00 | 86 | 982.6 |
| 20260906013441 | 65 | 0 | 0.0 | 0.0 | 0.00 | 0.00 | 0.00 | 86 | 982.6 |
| 20260906011813 | 65 | 0 | 0.0 | 0.0 | 0.00 | 0.00 | 0.00 | 84 | 982.6 |
| 20260906010204 | 66 | 0 | 0.0 | 0.0 | 0.00 | 0.00 | 0.00 | 83 | 982.5 |
| 20260906000440 | 66 | 0 | 0.0 | 0.0 | 0.00 | 0.00 | 0.00 | 83 | 982.7 |
| 20260905233440 | 67 | 0 | 0.0 | 0.0 | 0.00 | 0.00 | 0.00 | 81 | 982.7 |
| 20260905230452 | 68 | 0 | 0.0 | 0.0 | 0.00 | 0.00 | 0.00 | 80 | 982.7 |
| 20260905223437 | 69 | 0 | 0.0 | 0.0 | 0.00 | 0.00 | 0.00 | 78 | 982.9 |
| 20260905220436 | 70 | 0 | 0.0 | 0.0 | 0.00 | 0.00 | 0.00 | 76 | 982.6 |
| 20260905213436 | 71 | 0 | 0.0 | 0.0 | 0.00 | 0.00 | 0.00 | 74 | 982.6 |
| 20260905210446 | 72 | 0 | 0.0 | 0.0 | 0.00 | 0.00 | 0.00 | 72 | 982.7 |
| 20260905203433 | 73 | 0 | 0.0 | 1.0 | 0.00 | 0.00 | 0.00 | 69 | 982.8 |
| 20260905200434 | 74 | 42 | 0.0 | 1.0 | 0.00 | 0.00 | 0.00 | 66 | 982.7 |
| 20260905193431 | 75 | 0 | 0.0 | 1.0 | 0.00 | 0.00 | 0.00 | 64 | 982.5 |
| 20260905190429 | 76 | 0 | 0.0 | 4.0 | 0.00 | 0.00 | 0.00 | 61 | 982.2 |
| 20260905183430 | 78 | 0 | 0.0 | 0.0 | 0.00 | 0.00 | 0.00 | 57 | 982.0 |
| 20260905181805 | 80 | 0 | 0.0 | 1.0 | 0.00 | 0.00 | 0.00 | 53 | 981.8 |
| 20260905173428 | 82 | 0 | 0.0 | 0.0 | 0.00 | 0.00 | 0.00 | 51 | 981.7 |
| 20260905170441 | 83 | 0 | 0.0 | 4.0 | 0.00 | 0.00 | 0.00 | 50 | 981.7 |
| 20260905163427 | 84 | 0 | 0.0 | 8.0 | 0.00 | 0.00 | 0.00 | 49 | 981.6 |
| 20260905160428 | 84 | 0 | 0.0 | 4.0 | 0.00 | 0.00 | 0.00 | 49 | 981.5 |
| 20260905153428 | 85 | 0 | 0.0 | 6.0 | 0.00 | 0.00 | 0.00 | 48 | 981.5 |
| 20260905150430 | 86 | 0 | 0.0 | 3.0 | 0.00 | 0.00 | 0.00 | 47 | 981.7 |
| 20260905143427 | 86 | 0 | 0.0 | 3.0 | 0.00 | 0.00 | 0.00 | 46 | 981.9 |
| 20260905140428 | 87 | 0 | 0.0 | 5.0 | 0.00 | 0.00 | 0.00 | 47 | 981.9 |
| 20260905134810 | 87 | 0 | 0.0 | 6.0 | 0.00 | 0.00 | 0.00 | 45 | 982.1 |
| 20260905130425 | 88 | 0 | 0.0 | 1.0 | 0.00 | 0.00 | 0.00 | 44 | 982.3 |
| 20260905123424 | 88 | 0 | 0.0 | 4.0 | 0.00 | 0.00 | 0.00 | 43 | 982.3 |
| 20260905120423 | 88 | 0 | 0.0 | 1.0 | 0.00 | 0.00 | 0.00 | 44 | 982.5 |
| 20260905113423 | 88 | 0 | 0.0 | 4.0 | 0.00 | 0.00 | 0.00 | 45 | 982.5 |
| 20260905110435 | 86 | 46 | 0.0 | 3.0 | 0.00 | 0.00 | 0.00 | 45 | 982.6 |
| 20260905103423 | 87 | 0 | 0.0 | 3.0 | 0.00 | 0.00 | 0.00 | 46 | 982.7 |
| 20260905100423 | 86 | 0 | 0.0 | 5.0 | 0.00 | 0.00 | 0.00 | 46 | 982.9 |
| 20260905093415 | 85 | 0 | 0.0 | 3.0 | 0.00 | 0.00 | 0.00 | 50 | 982.9 |
| 20260905091755 | 83 | 0 | 0.0 | 3.0 | 0.00 | 0.00 | 0.00 | 52 | 982.8 |
| 20260905084751 | 80 | 0 | 0.0 | 0.0 | 0.00 | 0.00 | 0.00 | 54 | 982.5 |
| 20260905080413 | 77 | 0 | 0.0 | 0.0 | 0.00 | 0.00 | 0.00 | 58 | 982.2 |
| 20260905073423 | 73 | 281 | 0.0 | 0.0 | 0.00 | 0.00 | 0.00 | 61 | 982.1 |
| 20260905073014 | 68 | 282 | 0.0 | 1.0 | 0.00 | 0.00 | 0.00 | 70 | 982.0 |
| 20260905064631 | 65 | 0 | 0.0 | 0.0 | 0.00 | 0.00 | 0.00 | 72 | 981.9 |
| 20260905061632 | 63 | 0 | 0.0 | 0.0 | 0.00 | 0.00 | 0.00 | 73 | 981.8 |